TimeMST,TemperatureF,Dew PointF,Humidity,Sea Level PressureIn,VisibilityMPH,Wind Direction,Wind SpeedMPH,Gust SpeedMPH,PrecipitationIn,Events,Conditions,WindDirDegrees,DateUTC
12:15 AM,46.4,8.6,22,30.18,10.0,West,13.8,-,N/A,,Clear,260,2013-01-24 07:15:00
12:35 AM,46.4,8.6,22,30.18,10.0,West,19.6,-,N/A,,Clear,270,2013-01-24 07:35:00
12:55 AM,46.4,8.6,22,30.18,10.0,West,16.1,-,N/A,,Clear,270,2013-01-24 07:55:00
1:15 AM,44.6,6.8,21,30.18,10.0,WNW,16.1,-,N/A,,Clear,290,2013-01-24 08:15:00
1:35 AM,44.6,8.6,23,30.18,10.0,West,16.1,-,N/A,,Clear,280,2013-01-24 08:35:00
1:55 AM,44.6,6.8,21,30.18,10.0,West,11.5,-,N/A,,Clear,280,2013-01-24 08:55:00
2:15 AM,42.8,8.6,25,30.18,10.0,West,12.7,-,N/A,,Clear,270,2013-01-24 09:15:00
2:35 AM,44.6,8.6,23,30.18,10.0,West,9.2,-,N/A,,Clear,280,2013-01-24 09:35:00
2:55 AM,44.6,8.6,23,30.18,10.0,West,9.2,-,N/A,,Clear,260,2013-01-24 09:55:00
3:15 AM,44.6,8.6,23,30.18,10.0,West,12.7,-,N/A,,Clear,260,2013-01-24 10:15:00
3:35 AM,42.8,8.6,25,30.18,10.0,West,11.5,-,N/A,,Clear,260,2013-01-24 10:35:00
3:55 AM,42.8,8.6,25,30.18,10.0,West,16.1,-,N/A,,Clear,260,2013-01-24 10:55:00
4:15 AM,44.6,8.6,23,30.19,10.0,West,15.0,-,N/A,,Clear,270,2013-01-24 11:15:00
4:35 AM,44.6,8.6,23,30.18,10.0,West,16.1,-,N/A,,Clear,260,2013-01-24 11:35:00
4:55 AM,44.6,10.4,25,30.19,10.0,NW,11.5,-,N/A,,Clear,310,2013-01-24 11:55:00
5:15 AM,39.2,8.6,28,30.19,10.0,WNW,12.7,-,N/A,,Clear,290,2013-01-24 12:15:00
5:35 AM,37.4,8.6,30,30.19,10.0,West,11.5,-,N/A,,Clear,270,2013-01-24 12:35:00
5:55 AM,37.4,10.4,33,30.19,10.0,West,12.7,-,N/A,,Clear,270,2013-01-24 12:55:00
6:15 AM,39.2,12.2,33,30.19,10.0,West,15.0,-,N/A,,Clear,270,2013-01-24 13:15:00
6:35 AM,39.2,12.2,33,30.20,10.0,West,11.5,-,N/A,,Clear,280,2013-01-24 13:35:00
6:55 AM,37.4,10.4,33,30.20,10.0,WNW,10.4,-,N/A,,Clear,300,2013-01-24 13:55:00
7:15 AM,37.4,12.2,36,30.20,10.0,WNW,10.4,-,N/A,,Clear,300,2013-01-24 14:15:00
7:35 AM,39.2,12.2,33,30.20,10.0,WNW,9.2,-,N/A,,Clear,290,2013-01-24 14:35:00
7:55 AM,42.8,15.8,34,30.20,10.0,West,11.5,-,N/A,,Clear,280,2013-01-24 14:55:00
8:15 AM,44.6,15.8,31,30.20,10.0,West,10.4,-,N/A,,Clear,280,2013-01-24 15:15:00
8:35 AM,44.6,15.8,31,30.21,10.0,West,5.8,-,N/A,,Clear,280,2013-01-24 15:35:00
8:55 AM,48.2,17.6,30,30.21,10.0,West,10.4,-,N/A,,Clear,280,2013-01-24 15:55:00
9:15 AM,51.8,17.6,26,30.21,10.0,West,12.7,-,N/A,,Clear,270,2013-01-24 16:15:00
9:35 AM,55.4,17.6,23,30.20,10.0,West,15.0,-,N/A,,Clear,260,2013-01-24 16:35:00
9:55 AM,57.2,17.6,21,30.20,10.0,West,16.1,-,N/A,,Clear,260,2013-01-24 16:55:00
10:15 AM,60.8,17.6,19,30.20,10.0,West,18.4,-,N/A,,Clear,270,2013-01-24 17:15:00
10:35 AM,62.6,15.8,16,30.19,10.0,West,17.3,21.9,N/A,,Clear,260,2013-01-24 17:35:00
10:55 AM,64.4,15.8,15,30.17,10.0,West,23.0,29.9,N/A,,Clear,270,2013-01-24 17:55:00
11:15 AM,66.2,15.8,14,30.17,10.0,West,20.7,29.9,N/A,,Clear,260,2013-01-24 18:15:00
11:35 AM,68.0,15.8,13,30.15,10.0,WSW,18.4,-,N/A,,Clear,250,2013-01-24 18:35:00
11:55 AM,68.0,15.8,13,30.14,10.0,WSW,23.0,26.5,N/A,,Clear,250,2013-01-24 18:55:00
12:15 PM,68.0,15.8,13,30.13,10.0,WSW,20.7,24.2,N/A,,Clear,240,2013-01-24 19:15:00
12:35 PM,71.6,17.6,13,30.11,10.0,West,24.2,31.1,N/A,,Clear,260,2013-01-24 19:35:00
12:55 PM,71.6,15.8,12,30.10,10.0,WSW,24.2,29.9,N/A,,Clear,250,2013-01-24 19:55:00
1:15 PM,73.4,17.6,12,30.09,10.0,WSW,25.3,29.9,N/A,,Clear,250,2013-01-24 20:15:00
1:35 PM,73.4,17.6,12,30.08,10.0,WSW,20.7,32.2,N/A,,Clear,250,2013-01-24 20:35:00
1:55 PM,69.8,15.8,13,30.07,10.0,WSW,24.2,31.1,N/A,,Clear,250,2013-01-24 20:55:00
2:15 PM,73.4,19.4,13,30.07,10.0,West,25.3,32.2,N/A,,Clear,260,2013-01-24 21:15:00
2:35 PM,71.6,17.6,13,30.07,10.0,WSW,25.3,32.2,N/A,,Clear,250,2013-01-24 21:35:00
2:55 PM,69.8,17.6,14,30.08,10.0,West,24.2,33.4,N/A,,Clear,270,2013-01-24 21:55:00
3:15 PM,69.8,19.4,15,30.08,10.0,West,23.0,34.5,N/A,,Clear,260,2013-01-24 22:15:00
3:35 PM,68.0,19.4,16,30.07,10.0,West,24.2,29.9,N/A,,Clear,270,2013-01-24 22:35:00
3:55 PM,66.2,21.2,18,30.07,10.0,West,16.1,-,N/A,,Clear,260,2013-01-24 22:55:00
4:15 PM,66.2,23.0,19,30.07,10.0,WSW,18.4,25.3,N/A,,Clear,250,2013-01-24 23:15:00
4:35 PM,66.2,24.8,21,30.08,10.0,WSW,16.1,-,N/A,,Clear,250,2013-01-24 23:35:00
4:55 PM,66.2,24.8,21,30.08,10.0,West,18.4,29.9,N/A,,Clear,260,2013-01-24 23:55:00
5:15 PM,64.4,23.0,21,30.08,10.0,WSW,17.3,-,N/A,,Clear,250,2013-01-25 00:15:00
5:35 PM,64.4,23.0,21,30.08,10.0,WSW,18.4,24.2,N/A,,Clear,250,2013-01-25 00:35:00
5:55 PM,64.4,24.8,22,30.08,10.0,WSW,21.9,26.5,N/A,,Clear,250,2013-01-25 00:55:00
6:15 PM,64.4,24.8,22,30.09,10.0,WSW,19.6,26.5,N/A,,Clear,250,2013-01-25 01:15:00
6:35 PM,64.4,26.6,24,30.09,10.0,WSW,19.6,27.6,N/A,,Clear,250,2013-01-25 01:35:00
6:55 PM,64.4,26.6,24,30.10,10.0,West,24.2,32.2,N/A,,Clear,270,2013-01-25 01:55:00
7:15 PM,64.4,24.8,22,30.10,10.0,West,20.7,-,N/A,,Clear,260,2013-01-25 02:15:00
7:35 PM,62.6,24.8,24,30.10,10.0,West,18.4,-,N/A,,Clear,260,2013-01-25 02:35:00
7:55 PM,57.2,24.8,29,30.11,10.0,WSW,11.5,-,N/A,,Clear,240,2013-01-25 02:55:00
8:15 PM,55.4,24.8,31,30.10,10.0,WSW,12.7,-,N/A,,Clear,240,2013-01-25 03:15:00
8:35 PM,55.4,26.6,33,30.09,10.0,WSW,13.8,-,N/A,,Clear,250,2013-01-25 03:35:00
8:55 PM,55.4,26.6,33,30.10,10.0,WSW,16.1,-,N/A,,Clear,240,2013-01-25 03:55:00
9:15 PM,55.4,26.6,33,30.10,10.0,WSW,18.4,-,N/A,,Clear,250,2013-01-25 04:15:00
9:35 PM,55.4,26.6,33,30.10,10.0,WSW,17.3,-,N/A,,Clear,250,2013-01-25 04:35:00
9:55 PM,57.2,24.8,29,30.10,10.0,WSW,16.1,-,N/A,,Clear,250,2013-01-25 04:55:00
10:15 PM,57.2,24.8,29,30.10,10.0,West,20.7,24.2,N/A,,Clear,260,2013-01-25 05:15:00
10:35 PM,57.2,24.8,29,30.10,10.0,West,25.3,-,N/A,,Clear,270,2013-01-25 05:35:00
10:55 PM,57.2,24.8,29,30.10,10.0,West,20.7,29.9,N/A,,Clear,270,2013-01-25 05:55:00
11:15 PM,57.2,23.0,27,30.11,10.0,West,24.2,31.1,N/A,,Clear,280,2013-01-25 06:15:00
11:35 PM,55.4,24.8,31,30.11,10.0,West,20.7,29.9,N/A,,Clear,270,2013-01-25 06:35:00
11:55 PM,55.4,24.8,31,30.09,10.0,West,24.2,31.1,N/A,,Clear,270,2013-01-25 06:55:00